This is the latest recevied weather packets stored in our database for station/object KI4MRC. If no packets are shown the sender has not sent any weather packets the latest 10 day(s).
| Time | Temp. | Humidity | Pressure | Rain* | Wind** | Luminosity | Snow |
|---|---|---|---|---|---|---|---|
| 1777941090 | 23.89° C | 79% | 1014 hPa | 0 mm | - | 0 W/m² | - |
| 1777940786 | 23.89° C | 78% | 1014 hPa | 0 mm | - | 0 W/m² | - |
| 1777940484 | 23.89° C | 78% | 1014 hPa | 0 mm | - | 0 W/m² | - |
| 1777940181 | 23.89° C | 78% | 1014.1 hPa | 0 mm | - | 0 W/m² | - |
| 1777939878 | 23.89° C | 78% | 1014 hPa | 0 mm | - | 0 W/m² | - |
| 1777939575 | 24.44° C | 77% | 1013.9 hPa | 0 mm | - | 0 W/m² | - |
| 1777939273 | 24.44° C | 76% | 1014 hPa | 0 mm | - | 1 W/m² | - |
| 1777938969 | 24.44° C | 76% | 1014 hPa | 0 mm | - | 3 W/m² | - |
| 1777938666 | 24.44° C | 76% | 1014 hPa | 0 mm | - | 6 W/m² | - |
| 1777938363 | 24.44° C | 76% | 1013.9 hPa | 0 mm | - | 11 W/m² | - |
| 1777938060 | 24.44° C | 76% | 1013.9 hPa | 0 mm | - | 15 W/m² | - |
| 1777937755 | 24.44° C | 76% | 1013.9 hPa | 0 mm | - | 23 W/m² | - |
| 1777937452 | 24.44° C | 75% | 1013.9 hPa | 0 mm | - | 26 W/m² | - |
| 1777937149 | 24.44° C | 75% | 1014.1 hPa | 0 mm | - | 29 W/m² | - |
| 1777936847 | 24.44° C | 75% | 1014 hPa | 0 mm | - | 31 W/m² | - |
| 1777936543 | 24.44° C | 75% | 1013.9 hPa | 0 mm | - | 31 W/m² | - |
| 1777936239 | 24.44° C | 75% | 1013.8 hPa | 0 mm | - | 34 W/m² | - |
| 1777935936 | 24.44° C | 74% | 1013.7 hPa | 0 mm | - | 33 W/m² | - |
| 1777935635 | 24.44° C | 74% | 1013.5 hPa | 0 mm | - | 31 W/m² | - |
| 1777935332 | 25° C | 74% | 1013.7 hPa | 0 mm | - | 38 W/m² | - |
| 1777935029 | 25° C | 75% | 1013.5 hPa | 0 mm | - | 61 W/m² | - |
| 1777934725 | 25° C | 74% | 1013.6 hPa | 0 mm | - | 56 W/m² | - |
| 1777934422 | 25° C | 75% | 1013.6 hPa | 0 mm | - | 52 W/m² | - |
| 1777934119 | 25° C | 75% | 1013.6 hPa | 0 mm | - | 41 W/m² | - |
| 1777933815 | 25° C | 73% | 1013.5 hPa | 0 mm | - | 39 W/m² | - |
* Rain latest hour (hover to see other rain measurements)
** Current wind speed in m/s (hover to see current wind gust speed)